Change the Weather History Date:

Wednesday, February 25, 2015

  Actual Average Record
Temperature  
Mean Temperature 5 °F 22 °F  
Max Temperature 15 °F 31 °F 68 °F (1958)
Min Temperature -6 °F 13 °F -15 °F (1980)
Degree Days  
Heating Degree Days 60 43  
Month to date heating degree days 1349 1186  
Since 1 July heating degree days 6087 6132  
Cooling Degree Days 0 0  
Month to date cooling degree days 0 0  
Year to date cooling degree days 0 0  
Moisture  
Dew Point 0 °F    
Average Humidity 76    
Maximum Humidity 91    
Minimum Humidity 61    
Precipitation  
Precipitation 0.08 in 0.02 in 0.60 in (2000)
Month to date precipitation 0.41 0.36  
Year to date precipitation 0.88 0.79  
Snow  
Snow 0.00 in - - ()
Month to date snowfall 3.5  
Since 1 July snowfall 21.0  
Snow Depth 2.00 in    
Sea Level Pressure  
Sea Level Pressure 30.25 in    
Wind  
Wind Speed 15 mph (NNE)    
Max Wind Speed 25 mph    
Max Gust Speed 30 mph    
T = Trace of Precipitation, MM = Missing Value Source: NWS Daily Summary

Daily Weather History Graph

Daily Weather History Graph

Search for Another Location

Airport or City:

Trip Planner

Search our weather history database for the weather conditions in past years. The results will help you decide how hot, cold, wet, or windy it might be!

Date:

Astronomy

Feb. 25, 2015 Rise Set
Actual Time 7:13 AM CST 6:08 PM CST
Civil Twilight 6:43 AM CST 6:38 PM CST
Nautical Twilight 6:09 AM CST 7:13 PM CST
Astronomical Twilight 5:35 AM CST 7:47 PM CST
Moon 11:15 AM CST (2/25) 1:18 AM CST (2/25)
Length of Visible Light 11h 55m
Length of Day
10h 55m
Waxing Crescent, 50% of the Moon is Illuminated
Feb 25
Waxing Crescent
Mar 5
Full
Mar 13
Last Quarter
Mar 20
New
Mar 27
First Quarter

Hourly Weather History & Observations

Time (CST) Temp. Windchill Dew Point Humidity Pressure Visibility Wind Dir Wind Speed Gust Speed Precip Events Conditions
12:56 AM 14.0 °F 2.0 °F 6.1 °F 71% 29.98 in - East 9.2 mph - N/A   Unknown
1:56 AM 12.9 °F -0.2 °F 5.0 °F 71% 29.99 in - East 10.4 mph - N/A   Unknown
2:56 AM 12.0 °F -1.3 °F 6.1 °F 77% 30.00 in - ENE 10.4 mph - N/A   Unknown
3:56 AM 10.0 °F -5.2 °F 7.0 °F 87% 30.01 in - NE 12.7 mph - 0.02 in   Unknown
4:56 AM 9.0 °F -4.2 °F 6.1 °F 88% 30.02 in - ENE 9.2 mph - 0.03 in   Unknown
5:56 AM 8.1 °F -7.7 °F 3.9 °F 83% 30.06 in - NE 12.7 mph - 0.01 in   Unknown
6:56 AM 7.0 °F -10.4 °F 3.9 °F 87% 30.08 in - NNE 15.0 mph - 0.01 in   Unknown
7:56 AM 6.1 °F -12.8 °F 1.9 °F 83% 30.13 in - NNE 17.3 mph - N/A   Unknown
8:56 AM 5.0 °F -12.3 °F 1.0 °F 84% 30.17 in - NNE 13.8 mph - N/A   Unknown
10:56 AM 6.1 °F -13.3 °F -0.0 °F 76% 30.24 in - NNE 18.4 mph - N/A   Unknown
11:56 AM 6.1 °F -13.3 °F -0.0 °F 76% 30.26 in - North 18.4 mph - N/A   Unknown
12:56 PM 6.1 °F -15.2 °F -0.0 °F 76% 30.27 in - North 23.0 mph - N/A   Unknown
1:56 PM 7.0 °F -13.1 °F 1.0 °F 77% 30.29 in - North 20.7 mph - N/A   Unknown
2:56 PM 7.0 °F -14.5 °F -0.0 °F 73% 30.32 in - North 24.2 mph 29.9 mph N/A   Unknown
3:56 PM 7.0 °F -13.1 °F -0.0 °F 73% 30.35 in - North 20.7 mph - N/A   Unknown
4:56 PM 5.0 °F -17.1 °F -0.9 °F 76% 30.38 in - North 24.2 mph - N/A   Unknown
5:56 PM 3.0 °F -16.7 °F -4.0 °F 73% 30.41 in - North 17.3 mph - N/A   Unknown
6:56 PM -0.0 °F -18.0 °F -5.1 °F 79% 30.45 in - North 12.7 mph - N/A   Unknown
8:56 PM -5.1 °F -20.4 °F -9.0 °F 83% 30.52 in - North 8.1 mph - N/A   Unknown
9:56 PM -4.0 °F -24.5 °F -7.1 °F 87% 30.53 in - North 15.0 mph - N/A   Unknown
10:56 PM -5.1 °F -23.5 °F -9.0 °F 83% 30.55 in - North 11.5 mph - N/A   Unknown
11:56 PM -5.1 °F -25.1 °F -9.9 °F 80% 30.56 in - NNW 13.8 mph - N/A   Unknown